Location: Namasale
(1.5000°N, 32.6167°E)
Time: 00:04:44
(UTC+00:00)

Transit 2A - Pass Details

Date: 28 April 2021
Orbit: 602 x 957 km, 66.7° (Epoch: 11 May)

Event Time Altitude Azimuth Distance (km) Brightness Sun altitude
Rises 12:13:24 0° 11° (NNE) 3,067 9.2 51.6°
Reaches altitude 10° 12:16:27 10° 32° (NNE) 2,221 8.4 50.9°
Maximum altitude 12:19:41 17° 72° (ENE) 1,866 7.9 50.2°
Drops below altitude 10° 12:23:05 10° 111° (ESE) 2,379 8.3 49.4°
Sets 12:26:29 0° 130° (SE) 3,390 9.0 48.6°
